�������l�o���
Date,Time,MP-1(��Sv/h),MP-2(��Sv/h),MP-3(��Sv/h),MP-4(��Sv/h),MP-5(��Sv/h),MP-6(��Sv/h),MP-7(��Sv/h),MP-8(��Sv/h),����,����(m/s),���J
2021/06/29,00:00,0.630,0.933,0.594,1.145,0.821,0.373,0.652,0.607,�k�k��,4.3,�L
2021/06/29,00:10,0.628,0.931,0.591,1.143,0.820,0.370,0.650,0.607,�k�k��,3.9,��
2021/06/29,00:20,0.629,0.933,0.591,1.146,0.819,0.370,0.652,0.606,�k,4.6,��
2021/06/29,00:30,0.629,0.932,0.591,1.143,0.821,0.371,0.652,0.606,�k,5.1,�L
2021/06/29,00:40,0.629,0.930,0.592,1.145,0.818,0.371,0.652,0.607,�k�k��,5.5,�L
2021/06/29,00:50,0.628,0.931,0.590,1.145,0.820,0.372,0.652,0.608,�k�k��,4.6,�L
2021/06/29,01:00,0.628,0.932,0.592,1.143,0.820,0.373,0.652,0.608,�k�k��,5.1,�L
2021/06/29,01:10,0.627,0.927,0.590,1.143,0.817,0.373,0.652,0.609,�k,4.5,�L
2021/06/29,01:20,0.627,0.927,0.590,1.140,0.817,0.373,0.653,0.607,�k,3.6,�L
2021/06/29,01:30,0.628,0.926,0.590,1.142,0.816,0.372,0.651,0.607,�k�k��,4.1,��
2021/06/29,01:40,0.626,0.927,0.591,1.143,0.818,0.371,0.649,0.608,�k�k��,4.3,�L
2021/06/29,01:50,0.626,0.927,0.589,1.142,0.818,0.373,0.651,0.609,�k�k��,4.0,��
2021/06/29,02:00,0.627,0.928,0.590,1.139,0.818,0.372,0.652,0.608,�k�k��,4.9,��
2021/06/29,02:10,0.629,0.927,0.590,1.143,0.819,0.372,0.652,0.608,�k�k��,4.8,��
2021/06/29,02:20,0.627,0.929,0.591,1.142,0.818,0.372,0.651,0.606,�k�k��,5.0,��
2021/06/29,02:30,0.628,0.927,0.590,1.143,0.817,0.374,0.652,0.608,�k�k��,5.2,�L
2021/06/29,02:40,0.627,0.927,0.590,1.141,0.818,0.373,0.653,0.606,�k�k��,5.0,�L
2021/06/29,02:50,0.627,0.929,0.590,1.145,0.817,0.373,0.652,0.607,�k�k��,4.2,�L
2021/06/29,03:00,0.629,0.928,0.590,1.142,0.816,0.372,0.652,0.607,�k�k��,4.9,�L
2021/06/29,03:10,0.630,0.929,0.589,1.141,0.816,0.373,0.651,0.608,�k�k��,5.2,�L
2021/06/29,03:20,0.628,0.925,0.591,1.142,0.817,0.372,0.653,0.608,�k�k��,4.7,�L
2021/06/29,03:30,0.629,0.929,0.590,1.143,0.816,0.373,0.651,0.606,�k�k��,5.3,�L
2021/06/29,03:40,0.627,0.925,0.589,1.140,0.814,0.373,0.652,0.607,�k�k��,4.5,�L
2021/06/29,03:50,0.628,0.924,0.589,1.138,0.815,0.372,0.650,0.605,�k�k��,4.4,�L
2021/06/29,04:00,0.626,0.924,0.590,1.139,0.814,0.372,0.650,0.605,�k,5.1,�L
2021/06/29,04:10,0.627,0.922,0.589,1.139,0.813,0.372,0.649,0.605,�k�k��,5.1,�L
2021/06/29,04:20,0.626,0.923,0.588,1.138,0.812,0.373,0.648,0.604,�k,5.6,�L
2021/06/29,04:30,0.626,0.923,0.590,1.141,0.813,0.372,0.648,0.604,�k�k��,5.6,�L
2021/06/29,04:40,0.626,0.921,0.588,1.139,0.809,0.371,0.647,0.604,�k,4.8,�L
2021/06/29,04:50,0.625,0.920,0.587,1.137,0.810,0.372,0.649,0.604,�k,5.6,�L
2021/06/29,05:00,0.624,0.920,0.587,1.136,0.809,0.372,0.647,0.603,�k,4.4,�L
2021/06/29,05:10,0.625,0.917,0.585,1.134,0.807,0.372,0.647,0.605,�k�k��,4.9,�L
2021/06/29,05:20,0.621,0.916,0.587,1.133,0.805,0.370,0.646,0.603,�k,5.7,�L
2021/06/29,05:30,0.623,0.915,0.586,1.133,0.804,0.370,0.645,0.601,�k�k��,5.3,�L
2021/06/29,05:40,0.620,0.911,0.584,1.129,0.804,0.369,0.646,0.601,�k,5.7,�L
2021/06/29,05:50,0.622,0.910,0.582,1.128,0.802,0.371,0.645,0.601,�k�k��,5.6,�L
2021/06/29,06:00,0.621,0.908,0.585,1.125,0.800,0.370,0.644,0.601,�k,5.4,�L
2021/06/29,06:10,0.618,0.907,0.582,1.122,0.801,0.369,0.643,0.601,�k,5.7,�L
2021/06/29,06:20,0.619,0.906,0.581,1.119,0.797,0.372,0.643,0.600,�k,7.5,�L
2021/06/29,06:30,0.617,0.904,0.582,1.116,0.797,0.369,0.643,0.600,�k�k��,7.1,�L
2021/06/29,06:40,0.617,0.902,0.580,1.114,0.794,0.369,0.641,0.599,�k,6.5,�L
2021/06/29,06:50,0.617,0.900,0.579,1.113,0.793,0.369,0.641,0.597,�k�k��,7.4,�L
2021/06/29,07:00,0.615,0.899,0.580,1.108,0.790,0.369,0.640,0.597,�k,7.3,�L
2021/06/29,07:10,0.615,0.898,0.579,1.104,0.790,0.367,0.640,0.597,�k,9.1,�L
2021/06/29,07:20,0.614,0.896,0.579,1.101,0.788,0.369,0.639,0.598,�k�k��,8.7,�L
2021/06/29,07:30,0.613,0.892,0.578,1.097,0.786,0.368,0.639,0.595,�k�k��,8.3,�L
2021/06/29,07:40,0.612,0.892,0.577,1.097,0.786,0.368,0.637,0.595,�k�k��,8.3,�L
2021/06/29,07:50,0.611,0.891,0.575,1.091,0.783,0.367,0.638,0.595,�k�k��,8.1,�L
2021/06/29,08:00,0.612,0.891,0.576,1.090,0.781,0.365,0.637,0.595,�k�k��,8.7,�L
2021/06/29,08:10,0.610,0.887,0.575,1.088,0.782,0.366,0.637,0.594,�k�k��,9.9,�L
2021/06/29,08:20,0.608,0.887,0.576,1.086,0.778,0.365,0.636,0.592,�k,8.9,�L
2021/06/29,08:30,0.609,0.887,0.574,1.086,0.778,0.366,0.636,0.595,�k,10.3,�L
2021/06/29,08:40,0.607,0.883,0.574,1.084,0.778,0.366,0.636,0.593,�k,7.9,�L
2021/06/29,08:50,0.605,0.885,0.574,1.085,0.777,0.365,0.634,0.592,�k,8.0,�L
2021/06/29,09:00,0.607,0.882,0.572,1.083,0.778,0.364,0.637,0.594,�k,9.1,�L
2021/06/29,09:10,0.607,0.881,0.574,1.083,0.777,0.365,0.633,0.592,�k�k��,8.3,�L
2021/06/29,09:20,0.607,0.884,0.572,1.081,0.775,0.364,0.634,0.593,�k�k��,10.2,�L
2021/06/29,09:30,0.606,0.879,0.573,1.084,0.775,0.363,0.635,0.593,�k,8.5,�L
2021/06/29,09:40,0.603,0.878,0.568,1.078,0.772,0.363,0.633,0.591,�k,8.0,�L
2021/06/29,09:50,0.600,0.870,0.566,1.071,0.768,0.362,0.632,0.592,�k�k��,9.6,�L
2021/06/29,10:00,0.594,0.866,0.566,1.063,0.762,0.361,0.629,0.592,�k�k��,7.1,�L
2021/06/29,10:10,0.594,0.862,0.565,1.062,0.760,0.360,0.628,0.586,�k�k��,10.2,�L
2021/06/29,10:20,0.595,0.862,0.563,1.060,0.760,0.360,0.629,0.589,�k,9.0,�L
2021/06/29,10:30,0.596,0.864,0.564,1.064,0.760,0.360,0.628,0.587,�k�k��,7.8,�L
2021/06/29,10:40,0.587,0.855,0.561,1.053,0.750,0.356,0.626,0.586,�k,7.9,�L
2021/06/29,10:50,0.585,0.847,0.559,1.044,0.747,0.356,0.624,0.583,�k,1.2,�L
2021/06/29,11:00,0.582,0.845,0.556,1.039,0.739,0.355,0.621,0.582,�쓌,3.7,�L
2021/06/29,11:10,0.583,0.850,0.559,1.036,0.736,0.354,0.621,0.581,-,CALM,�L
2021/06/29,11:20,0.585,0.850,0.558,1.038,0.736,0.355,0.618,0.582,�k,8.1,�L
2021/06/29,11:30,0.586,0.848,0.557,1.032,0.731,0.356,0.620,0.580,�k�k��,5.7,�L
2021/06/29,11:40,0.581,0.841,0.555,1.028,0.728,0.356,0.621,0.581,�k�k��,5.8,�L
2021/06/29,11:50,0.584,0.845,0.557,1.031,0.728,0.358,0.620,0.585,�k�k��,8.8,�L
2021/06/29,12:00,0.590,0.851,0.558,1.037,0.732,0.359,0.622,0.584,�k�k��,7.3,�L
2021/06/29,12:10,0.592,0.857,0.559,1.041,0.734,0.359,0.622,0.584,�k,7.9,�L
2021/06/29,12:20,0.593,0.854,0.561,1.044,0.733,0.357,0.623,0.585,�k�k��,8.0,�L
2021/06/29,12:30,0.594,0.859,0.561,1.047,0.734,0.360,0.623,0.587,�k�k��,8.0,�L
2021/06/29,12:40,0.593,0.858,0.560,1.042,0.732,0.359,0.624,0.586,�k,7.7,�L
2021/06/29,12:50,0.596,0.862,0.563,1.051,0.737,0.360,0.626,0.587,�k,7.9,��
2021/06/29,13:00,0.598,0.862,0.564,1.054,0.741,0.360,0.626,0.587,�k,9.6,�L
2021/06/29,13:10,0.599,0.865,0.563,1.058,0.743,0.361,0.627,0.587,�k�k��,9.3,�L
2021/06/29,13:20,0.597,0.864,0.563,1.061,0.745,0.360,0.627,0.589,�k,8.6,�L
2021/06/29,13:30,0.600,0.865,0.563,1.065,0.746,0.360,0.626,0.588,�k�k��,8.1,�L
2021/06/29,13:40,0.599,0.867,0.563,1.067,0.746,0.361,0.627,0.587,�k,6.4,�L
2021/06/29,13:50,0.601,0.866,0.563,1.067,0.747,0.361,0.629,0.588,�k,6.4,�L
2021/06/29,14:00,0.598,0.867,0.563,1.070,0.748,0.360,0.629,0.588,�k,6.7,�L
2021/06/29,14:10,0.599,0.866,0.561,1.071,0.748,0.360,0.627,0.588,�k,7.6,�L
2021/06/29,14:20,0.599,0.867,0.565,1.071,0.749,0.359,0.627,0.588,�k,6.8,�L
2021/06/29,14:30,0.598,0.870,0.565,1.073,0.751,0.361,0.628,0.587,�k,7.7,��
2021/06/29,14:40,0.597,0.868,0.563,1.074,0.750,0.360,0.628,0.589,�k�k��,8.5,�L
2021/06/29,14:50,0.599,0.868,0.566,1.074,0.751,0.360,0.629,0.587,�k�k��,8.4,�L
2021/06/29,15:00,0.597,0.869,0.565,1.075,0.753,0.360,0.628,0.587,�k,9.7,��
2021/06/29,15:10,0.599,0.873,0.562,1.074,0.755,0.361,0.629,0.589,�k�k��,10.2,�L
2021/06/29,15:20,0.600,0.871,0.562,1.075,0.755,0.360,0.630,0.589,�k,9.6,��
2021/06/29,15:30,0.599,0.871,0.564,1.074,0.753,0.361,0.629,0.590,�k,10.3,��
2021/06/29,15:40,0.600,0.872,0.563,1.077,0.755,0.361,0.629,0.588,�k,9.5,��
2021/06/29,15:50,0.599,0.873,0.562,1.075,0.753,0.361,0.630,0.588,�k,9.1,��
2021/06/29,16:00,0.601,0.873,0.563,1.077,0.753,0.361,0.630,0.589,�k,9.2,��
2021/06/29,16:10,0.600,0.874,0.563,1.076,0.754,0.361,0.630,0.589,�k,8.9,��
2021/06/29,16:20,0.602,0.873,0.564,1.080,0.756,0.360,0.630,0.588,�k,9.3,��
2021/06/29,16:30,0.601,0.875,0.564,1.077,0.756,0.361,0.630,0.587,�k,10.3,��
2021/06/29,16:40,0.601,0.877,0.565,1.076,0.758,0.360,0.630,0.590,�k,10.0,��
2021/06/29,16:50,0.600,0.875,0.566,1.076,0.757,0.361,0.631,0.589,�k,11.3,��
2021/06/29,17:00,0.600,0.876,0.566,1.079,0.756,0.361,0.629,0.589,�k,9.9,��
2021/06/29,17:10,0.599,0.876,0.565,1.079,0.757,0.361,0.630,0.590,�k,9.8,��
2021/06/29,17:20,0.600,0.875,0.564,1.078,0.759,0.361,0.632,0.589,�k,9.7,��
2021/06/29,17:30,0.602,0.878,0.565,1.079,0.759,0.360,0.632,0.590,�k,6.9,��
2021/06/29,17:40,0.600,0.876,0.565,1.081,0.757,0.361,0.631,0.589,�k,7.6,��
2021/06/29,17:50,0.600,0.875,0.565,1.079,0.761,0.362,0.630,0.590,�k,8.9,��
2021/06/29,18:00,0.600,0.877,0.565,1.080,0.759,0.361,0.630,0.591,�k,8.8,��
2021/06/29,18:10,0.601,0.878,0.565,1.082,0.759,0.362,0.630,0.590,�k,7.6,��
2021/06/29,18:20,0.601,0.878,0.566,1.084,0.761,0.361,0.631,0.591,�k,8.5,��
2021/06/29,18:30,0.603,0.877,0.566,1.085,0.762,0.360,0.630,0.591,�k,7.0,��
2021/06/29,18:40,0.603,0.879,0.567,1.082,0.760,0.361,0.630,0.591,�k�k��,8.0,��
2021/06/29,18:50,0.601,0.878,0.566,1.082,0.761,0.361,0.631,0.590,�k,6.5,��
2021/06/29,19:00,0.603,0.879,0.564,1.081,0.761,0.362,0.630,0.592,�k�k��,5.7,��
2021/06/29,19:10,0.601,0.881,0.568,1.081,0.762,0.360,0.631,0.591,�k�k��,7.1,��
2021/06/29,19:20,0.603,0.880,0.567,1.085,0.764,0.362,0.630,0.593,�k�k��,7.4,��
2021/06/29,19:30,0.602,0.880,0.568,1.084,0.763,0.363,0.631,0.591,�k�k��,6.1,��
2021/06/29,19:40,0.604,0.880,0.569,1.085,0.764,0.361,0.630,0.589,�k�k��,5.2,��
2021/06/29,19:50,0.604,0.881,0.568,1.085,0.766,0.361,0.632,0.592,�k��,4.4,��
2021/06/29,20:00,0.603,0.880,0.569,1.083,0.764,0.362,0.630,0.593,�k�k��,4.8,��
2021/06/29,20:10,0.604,0.882,0.569,1.082,0.765,0.361,0.631,0.592,�k��,4.9,��
2021/06/29,20:20,0.602,0.882,0.568,1.082,0.765,0.362,0.632,0.593,�k�k��,5.2,��
2021/06/29,20:30,0.603,0.882,0.569,1.083,0.765,0.362,0.632,0.592,�k�k��,6.3,��
2021/06/29,20:40,0.604,0.883,0.569,1.084,0.766,0.363,0.632,0.592,�k�k��,5.6,��
2021/06/29,20:50,0.603,0.883,0.569,1.084,0.766,0.363,0.631,0.593,�k�k��,4.8,��
2021/06/29,21:00,0.603,0.886,0.570,1.086,0.766,0.363,0.632,0.594,�k�k��,5.2,��
2021/06/29,21:10,0.604,0.884,0.570,1.084,0.767,0.363,0.629,0.595,�k�k��,6.0,��
2021/06/29,21:20,0.605,0.885,0.568,1.085,0.766,0.363,0.631,0.594,�k�k��,5.4,��
2021/06/29,21:30,0.605,0.885,0.571,1.087,0.767,0.363,0.631,0.593,�k�k��,5.6,��
2021/06/29,21:40,0.604,0.883,0.568,1.084,0.768,0.363,0.632,0.593,�k�k��,6.6,��
2021/06/29,21:50,0.605,0.884,0.570,1.085,0.769,0.363,0.631,0.594,�k�k��,5.9,��
2021/06/29,22:00,0.604,0.885,0.572,1.086,0.766,0.362,0.631,0.593,�k�k��,5.9,��
2021/06/29,22:10,0.604,0.884,0.570,1.086,0.768,0.364,0.632,0.594,�k�k��,6.6,��
2021/06/29,22:20,0.605,0.885,0.572,1.084,0.769,0.364,0.631,0.594,�k�k��,6.4,��
2021/06/29,22:30,0.604,0.886,0.570,1.085,0.769,0.363,0.632,0.593,�k�k��,6.7,��
2021/06/29,22:40,0.603,0.884,0.570,1.085,0.768,0.363,0.632,0.593,�k�k��,6.6,��
2021/06/29,22:50,0.606,0.885,0.570,1.084,0.768,0.362,0.633,0.594,�k�k��,5.8,��
2021/06/29,23:00,0.605,0.884,0.570,1.087,0.770,0.362,0.632,0.594,�k�k��,4.5,��
2021/06/29,23:10,0.604,0.885,0.571,1.087,0.769,0.363,0.634,0.594,�k�k��,5.6,��
2021/06/29,23:20,0.605,0.887,0.571,1.083,0.769,0.363,0.631,0.594,�k�k��,6.5,��
2021/06/29,23:30,0.605,0.883,0.571,1.086,0.768,0.363,0.632,0.593,�k�k��,5.9,��
2021/06/29,23:40,0.604,0.886,0.571,1.086,0.770,0.363,0.633,0.595,�k�k��,5.9,��
2021/06/29,23:50,0.605,0.886,0.572,1.085,0.768,0.363,0.633,0.595,�k�k��,5.4,��
